| time (UTC) | temp C | wind direction | speed KPH | gust KPH | rain 1hr cm | rain 24hr cm | rain mn cm | humidity % | barometer mb |
| 20260905224527 | 23 | 19 | 3.2 | 12.9 | 0.00 | 0.00 | 0.00 | 60 | 1011.6 |
| 20260905223525 | 23 | 19 | 4.8 | 16.1 | 0.00 | 0.00 | 0.00 | 59 | 1011.6 |
| 20260905222521 | 23 | 13 | 4.8 | 12.9 | 0.00 | 0.00 | 0.00 | 60 | 1011.5 |
| 20260905221518 | 23 | 17 | 3.2 | 14.5 | 0.00 | 0.00 | 0.00 | 60 | 1011.3 |
| 20260905220534 | 23 | 10 | 3.2 | 12.9 | 0.00 | 0.00 | 0.00 | 59 | 1011.4 |
| 20260905215531 | 24 | 9 | 4.8 | 9.7 | 0.00 | 0.00 | 0.00 | 58 | 1011.5 |
| 20260905214528 | 24 | 12 | 1.6 | 9.7 | 0.00 | 0.00 | 0.00 | 59 | 1011.4 |
| 20260905213527 | 24 | 16 | 3.2 | 9.7 | 0.00 | 0.00 | 0.00 | 59 | 1011.3 |
| 20260905212544 | 24 | 22 | 3.2 | 6.4 | 0.00 | 0.00 | 0.00 | 59 | 1011.3 |
| 20260905211521 | 24 | 26 | 3.2 | 11.3 | 0.00 | 0.00 | 0.00 | 57 | 1011.2 |
| 20260905210536 | 25 | 28 | 3.2 | 12.9 | 0.00 | 0.00 | 0.00 | 56 | 1011.4 |
| 20260905205533 | 25 | 14 | 4.8 | 12.9 | 0.00 | 0.00 | 0.00 | 55 | 1011.1 |
| 20260905204530 | 25 | 4 | 4.8 | 11.3 | 0.00 | 0.00 | 0.00 | 54 | 1011.1 |
| 20260905203527 | 25 | 19 | 3.2 | 12.9 | 0.00 | 0.00 | 0.00 | 55 | 1011.2 |
| 20260905202524 | 25 | 8 | 3.2 | 12.9 | 0.00 | 0.00 | 0.00 | 56 | 1011.4 |
| 20260905201521 | 25 | 19 | 3.2 | 9.7 | 0.00 | 0.00 | 0.00 | 56 | 1011.4 |
| 20260905200519 | 25 | 24 | 4.8 | 16.1 | 0.00 | 0.00 | 0.00 | 57 | 1011.3 |
| 20260905195534 | 25 | 21 | 3.2 | 16.1 | 0.00 | 0.00 | 0.00 | 59 | 1011.4 |
| 20260905194531 | 25 | 30 | 4.8 | 11.3 | 0.00 | 0.00 | 0.00 | 60 | 1011.3 |
| 20260905193528 | 25 | 23 | 3.2 | 9.7 | 0.00 | 0.00 | 0.00 | 62 | 1011.4 |
| 20260905192605 | 25 | 32 | 3.2 | 9.7 | 0.00 | 0.00 | 0.00 | 63 | 1011.4 |
| 20260905191522 | 25 | 40 | 4.8 | 9.7 | 0.00 | 0.00 | 0.00 | 62 | 1011.4 |
| 20260905190539 | 25 | 44 | 6.4 | 11.3 | 0.00 | 0.00 | 0.00 | 63 | 1011.5 |
| 20260905185517 | 25 | 38 | 3.2 | 9.7 | 0.00 | 0.00 | 0.00 | 63 | 1011.7 |
| 20260905184532 | 25 | 47 | 6.4 | 14.5 | 0.00 | 0.00 | 0.00 | 64 | 1011.7 |
| 20260905183529 | 25 | 43 | 3.2 | 11.3 | 0.00 | 0.00 | 0.00 | 64 | 1011.6 |
| 20260905182526 | 25 | 30 | 3.2 | 9.7 | 0.00 | 0.00 | 0.00 | 64 | 1011.7 |
| 20260905181523 | 25 | 26 | 4.8 | 11.3 | 0.00 | 0.00 | 0.00 | 64 | 1011.8 |
| 20260905180520 | 25 | 40 | 3.2 | 11.3 | 0.00 | 0.00 | 0.00 | 65 | 1011.8 |
| 20260905175516 | 25 | 34 | 3.2 | 14.5 | 0.00 | 0.00 | 0.00 | 66 | 1011.9 |
| 20260905174530 | 25 | 46 | 6.4 | 12.9 | 0.00 | 0.00 | 0.00 | 65 | 1011.8 |
| 20260905173525 | 24 | 37 | 3.2 | 6.4 | 0.00 | 0.00 | 0.00 | 64 | 1011.7 |
| 20260905172520 | 24 | 44 | 4.8 | 12.9 | 0.00 | 0.00 | 0.00 | 65 | 1011.9 |
| 20260905171515 | 25 | 40 | 4.8 | 14.5 | 0.00 | 0.00 | 0.00 | 64 | 1012.0 |
| 20260905170532 | 24 | 29 | 3.2 | 11.3 | 0.00 | 0.00 | 0.00 | 65 | 1012.0 |
| 20260905165529 | 24 | 44 | 4.8 | 9.7 | 0.00 | 0.00 | 0.00 | 67 | 1011.9 |
| 20260905164527 | 24 | 42 | 4.8 | 12.9 | 0.00 | 0.00 | 0.00 | 67 | 1011.9 |
| 20260905163523 | 24 | 31 | 3.2 | 12.9 | 0.00 | 0.00 | 0.00 | 68 | 1012.1 |
| 20260905162519 | 24 | 26 | 4.8 | 12.9 | 0.00 | 0.00 | 0.00 | 69 | 1012.0 |
| 20260905161516 | 23 | 40 | 3.2 | 11.3 | 0.00 | 0.00 | 0.00 | 70 | 1012.0 |
| 20260905160534 | 23 | 31 | 3.2 | 12.9 | 0.00 | 0.00 | 0.00 | 72 | 1012.0 |
| 20260905155530 | 23 | 35 | 1.6 | 6.4 | 0.00 | 0.00 | 0.00 | 74 | 1011.9 |
| 20260905154527 | 23 | 39 | 4.8 | 9.7 | 0.00 | 0.00 | 0.00 | 75 | 1011.8 |
| 20260905153604 | 22 | 45 | 3.2 | 11.3 | 0.00 | 0.00 | 0.00 | 75 | 1011.9 |
| 20260905152520 | 22 | 41 | 3.2 | 9.7 | 0.00 | 0.00 | 0.00 | 76 | 1011.7 |
| 20260905151517 | 22 | 28 | 3.2 | 11.3 | 0.00 | 0.03 | 0.00 | 77 | 1011.8 |
| 20260905150534 | 21 | 28 | 1.6 | 4.8 | 0.00 | 0.05 | 0.00 | 77 | 1011.7 |
| 20260905145531 | 21 | 27 | 1.6 | 6.4 | 0.00 | 0.10 | 0.00 | 78 | 1011.5 |
| 20260905144528 | 21 | 28 | 1.6 | 4.8 | 0.00 | 0.10 | 0.00 | 78 | 1011.5 |
| 20260905143525 | 21 | 37 | 1.6 | 9.7 | 0.00 | 0.10 | 0.00 | 78 | 1011.6 |
| 20260905142522 | 21 | 23 | 3.2 | 9.7 | 0.00 | 0.10 | 0.00 | 78 | 1011.6 |
| 20260905141519 | 21 | 33 | 1.6 | 11.3 | 0.00 | 0.13 | 0.00 | 78 | 1011.3 |
| 20260905140521 | 21 | 32 | 1.6 | 11.3 | 0.00 | 0.13 | 0.00 | 78 | 1011.7 |
| 20260905135533 | 20 | 35 | 1.6 | 9.7 | 0.00 | 0.20 | 0.00 | 79 | 1011.4 |
| 20260905134530 | 20 | 79 | 3.2 | 11.3 | 0.00 | 0.23 | 0.00 | 79 | 1011.3 |
| 20260905133547 | 20 | 88 | 3.2 | 12.9 | 0.00 | 0.25 | 0.00 | 79 | 1011.3 |
| 20260905132546 | 20 | 88 | 3.2 | 6.4 | 0.00 | 0.25 | 0.00 | 79 | 1011.5 |
| 20260905131521 | 20 | 89 | 3.2 | 6.4 | 0.00 | 0.25 | 0.00 | 79 | 1011.5 |
| 20260905130538 | 20 | 89 | 1.6 | 6.4 | 0.00 | 0.28 | 0.00 | 79 | 1011.6 |
| 20260905125534 | 20 | 93 | 1.6 | 9.7 | 0.00 | 0.28 | 0.00 | 79 | 1011.4 |
| 20260905124531 | 20 | 94 | 3.2 | 4.8 | 0.00 | 0.28 | 0.00 | 80 | 1011.3 |
| 20260905123528 | 20 | 97 | 0.0 | 3.2 | 0.00 | 0.28 | 0.00 | 80 | 1011.3 |
| 20260905122525 | 20 | 97 | 3.2 | 9.7 | 0.00 | 0.28 | 0.00 | 80 | 1011.3 |
| 20260905121522 | 20 | 97 | 1.6 | 6.4 | 0.00 | 0.28 | 0.00 | 81 | 1011.2 |
| 20260905120519 | 20 | 96 | 3.2 | 11.3 | 0.00 | 0.28 | 0.00 | 81 | 1011.3 |
| 20260905115516 | 20 | 97 | 3.2 | 9.7 | 0.00 | 0.28 | 0.00 | 82 | 1011.2 |
| 20260905114613 | 20 | 97 | 3.2 | 6.4 | 0.00 | 0.28 | 0.00 | 82 | 1011.1 |
| 20260905113532 | 20 | 98 | 1.6 | 9.7 | 0.00 | 0.28 | 0.00 | 82 | 1011.0 |
| 20260905112527 | 20 | 98 | 3.2 | 6.4 | 0.00 | 0.28 | 0.00 | 82 | 1011.0 |
| 20260905111524 | 20 | 135 | 3.2 | 9.7 | 0.00 | 0.28 | 0.00 | 83 | 1011.0 |
| 20260905110521 | 20 | 111 | 3.2 | 9.7 | 0.00 | 0.28 | 0.00 | 83 | 1010.9 |
| 20260905105518 | 20 | 113 | 4.8 | 14.5 | 0.00 | 0.28 | 0.00 | 83 | 1011.0 |
| 20260905104537 | 20 | 118 | 1.6 | 4.8 | 0.00 | 0.28 | 0.00 | 84 | 1011.1 |
| 20260905103532 | 20 | 115 | 4.8 | 11.3 | 0.00 | 0.28 | 0.00 | 84 | 1011.0 |
| 20260905102529 | 20 | 117 | 0.0 | 4.8 | 0.00 | 0.28 | 0.00 | 84 | 1010.9 |
| 20260905101526 | 20 | 123 | 3.2 | 9.7 | 0.00 | 0.28 | 0.00 | 84 | 1010.8 |
| 20260905100523 | 20 | 126 | 3.2 | 9.7 | 0.00 | 0.28 | 0.00 | 84 | 1010.8 |
| 20260905095520 | 20 | 240 | 1.6 | 6.4 | 0.00 | 0.28 | 0.00 | 84 | 1011.1 |
| 20260905094517 | 20 | 241 | 0.0 | 3.2 | 0.00 | 0.28 | 0.00 | 84 | 1011.1 |
| 20260905093534 | 20 | 240 | 0.0 | 1.6 | 0.00 | 0.28 | 0.00 | 84 | 1010.9 |
| 20260905092532 | 20 | 196 | 0.0 | 3.2 | 0.00 | 0.28 | 0.00 | 84 | 1010.8 |
| 20260905091527 | 20 | 172 | 0.0 | 3.2 | 0.00 | 0.28 | 0.00 | 84 | 1010.8 |
| 20260905090524 | 20 | 171 | 1.6 | 4.8 | 0.00 | 0.28 | 0.00 | 84 | 1010.5 |
| 20260905085521 | 20 | 38 | 0.0 | 1.6 | 0.00 | 0.28 | 0.00 | 84 | 1010.3 |
| 20260905084518 | 20 | 17 | 3.2 | 9.7 | 0.00 | 0.28 | 0.00 | 84 | 1010.0 |
| 20260905083515 | 20 | 44 | 3.2 | 12.9 | 0.00 | 0.28 | 0.00 | 85 | 1009.9 |
| 20260905082532 | 20 | 27 | 3.2 | 11.3 | 0.00 | 0.28 | 0.00 | 85 | 1010.3 |
| 20260905081529 | 20 | 71 | 1.6 | 11.3 | 0.00 | 0.28 | 0.00 | 85 | 1010.3 |
| 20260905080526 | 20 | 115 | 1.6 | 6.4 | 0.00 | 0.28 | 0.00 | 85 | 1010.3 |
| 20260905075522 | 20 | 121 | 0.0 | 3.2 | 0.00 | 0.28 | 0.00 | 85 | 1010.4 |
| 20260905074520 | 20 | 112 | 1.6 | 4.8 | 0.00 | 0.28 | 0.00 | 86 | 1010.4 |
| 20260905073516 | 20 | 117 | 1.6 | 4.8 | 0.00 | 0.28 | 0.00 | 86 | 1010.7 |
| 20260905072533 | 20 | 119 | 1.6 | 4.8 | 0.00 | 0.28 | 0.00 | 86 | 1010.2 |
| 20260905071530 | 20 | 108 | 1.6 | 4.8 | 0.00 | 0.28 | 0.00 | 86 | 1010.0 |
| 20260905070547 | 21 | 90 | 1.6 | 9.7 | 0.00 | 0.28 | 0.00 | 86 | 1009.8 |
| 20260905065544 | 21 | 92 | 1.6 | 4.8 | 0.00 | 0.28 | 0.00 | 86 | 1009.9 |
| 20260905064520 | 21 | 90 | 1.6 | 9.7 | 0.00 | 0.28 | 0.00 | 86 | 1009.9 |
| 20260905063517 | 21 | 90 | 1.6 | 4.8 | 0.00 | 0.28 | 0.00 | 87 | 1010.1 |
| 20260905062534 | 21 | 87 | 1.6 | 6.4 | 0.00 | 0.28 | 0.00 | 87 | 1010.3 |
| 20260905061531 | 21 | 86 | 1.6 | 9.7 | 0.00 | 0.28 | 0.00 | 87 | 1010.5 |
| 20260905060528 | 21 | 90 | 1.6 | 3.2 | 0.00 | 0.28 | 0.00 | 87 | 1010.7 |
| 20260905055525 | 21 | 93 | 0.0 | 3.2 | 0.00 | 0.28 | 0.00 | 87 | 1010.7 |
| 20260905054521 | 21 | 91 | 0.0 | 3.2 | 0.00 | 0.28 | 0.00 | 87 | 1010.4 |
| 20260905053518 | 21 | 89 | 1.6 | 4.8 | 0.00 | 0.28 | 0.00 | 87 | 1010.3 |
| 20260905052557 | 21 | 89 | 1.6 | 3.2 | 0.00 | 0.28 | 0.00 | 87 | 1010.3 |
| 20260905051532 | 21 | 89 | 1.6 | 4.8 | 0.00 | 0.28 | 0.00 | 86 | 1010.5 |
| 20260905050529 | 21 | 89 | 0.0 | 4.8 | 0.00 | 0.28 | 0.00 | 86 | 1010.7 |
| 20260905045526 | 21 | 87 | 0.0 | 3.2 | 0.00 | 0.28 | 0.00 | 86 | 1010.8 |
| 20260905044524 | 21 | 88 | 0.0 | 1.6 | 0.00 | 0.28 | 0.00 | 86 | 1010.7 |
| 20260905043519 | 21 | 88 | 0.0 | 3.2 | 0.00 | 0.28 | 0.00 | 86 | 1010.7 |
| 20260905042516 | 21 | 92 | 0.0 | 1.6 | 0.00 | 0.28 | 0.00 | 86 | 1010.8 |
| 20260905041613 | 21 | 91 | 0.0 | 3.2 | 0.00 | 0.28 | 0.00 | 86 | 1010.8 |
| 20260905040549 | 21 | 91 | 0.0 | 1.6 | 0.00 | 0.28 | 0.00 | 86 | 1011.0 |
| 20260905035528 | 21 | 91 | 0.0 | 3.2 | 0.00 | 0.28 | 0.28 | 86 | 1010.9 |
| 20260905034523 | 21 | 91 | 0.0 | 3.2 | 0.00 | 0.28 | 0.28 | 86 | 1011.2 |
| 20260905033520 | 21 | 89 | 1.6 | 6.4 | 0.00 | 0.28 | 0.28 | 86 | 1011.3 |
| 20260905032516 | 22 | 85 | 3.2 | 6.4 | 0.00 | 0.28 | 0.28 | 86 | 1011.4 |
| 20260905031554 | 22 | 92 | 0.0 | 3.2 | 0.00 | 0.28 | 0.28 | 86 | 1011.2 |
| 20260905030531 | 22 | 91 | 1.6 | 3.2 | 0.00 | 0.28 | 0.28 | 86 | 1011.1 |
| 20260905025527 | 22 | 85 | 1.6 | 4.8 | 0.00 | 0.28 | 0.28 | 86 | 1011.2 |
| 20260905024524 | 22 | 85 | 3.2 | 11.3 | 0.00 | 0.28 | 0.28 | 86 | 1011.3 |
| 20260905023601 | 22 | 93 | 1.6 | 3.2 | 0.00 | 0.28 | 0.28 | 86 | 1011.2 |
| 20260905022518 | 22 | 94 | 0.0 | 1.6 | 0.00 | 0.28 | 0.28 | 86 | 1011.1 |
| 20260905021535 | 22 | 92 | 1.6 | 3.2 | 0.00 | 0.28 | 0.28 | 86 | 1011.1 |
| 20260905020532 | 22 | 92 | 0.0 | 3.2 | 0.00 | 0.28 | 0.28 | 86 | 1011.3 |
| 20260905015529 | 22 | 92 | 0.0 | 3.2 | 0.00 | 0.28 | 0.28 | 86 | 1011.2 |
| 20260905014526 | 22 | 92 | 0.0 | 3.2 | 0.00 | 0.28 | 0.28 | 86 | 1011.3 |
| 20260905013523 | 22 | 95 | 0.0 | 3.2 | 0.00 | 0.28 | 0.28 | 85 | 1011.1 |
| 20260905012520 | 22 | 96 | 1.6 | 3.2 | 0.00 | 0.28 | 0.28 | 85 | 1011.1 |
| 20260905011516 | 22 | 96 | 1.6 | 3.2 | 0.00 | 0.28 | 0.28 | 85 | 1011.0 |
| 20260905010533 | 22 | 93 | 1.6 | 4.8 | 0.00 | 0.28 | 0.28 | 85 | 1010.9 |
| 20260905005530 | 23 | 89 | 1.6 | 6.4 | 0.00 | 0.28 | 0.28 | 85 | 1010.9 |
| 20260905004527 | 23 | 97 | 1.6 | 4.8 | 0.00 | 0.28 | 0.28 | 84 | 1011.0 |
| 20260905003524 | 23 | 98 | 1.6 | 6.4 | 0.00 | 0.28 | 0.28 | 84 | 1010.9 |
| 20260905002521 | 23 | 95 | 3.2 | 9.7 | 0.00 | 0.28 | 0.28 | 83 | 1010.8 |
| 20260905001538 | 24 | 108 | 4.8 | 11.3 | 0.00 | 0.28 | 0.28 | 83 | 1010.6 |
| 20260905000535 | 24 | 105 | 3.2 | 9.7 | 0.00 | 0.28 | 0.28 | 83 | 1010.6 |
| 20260904235613 | 24 | 120 | 0.0 | 1.6 | 0.00 | 0.28 | 0.28 | 83 | 1010.5 |
| 20260904234549 | 24 | 117 | 0.0 | 3.2 | 0.00 | 0.28 | 0.28 | 82 | 1010.5 |
| 20260904233526 | 25 | 118 | 0.0 | 1.6 | 0.00 | 0.28 | 0.28 | 82 | 1010.3 |
| 20260904232522 | 25 | 122 | 0.0 | 3.2 | 0.00 | 0.28 | 0.28 | 81 | 1010.1 |
| 20260904231519 | 25 | 120 | 1.6 | 6.4 | 0.00 | 0.28 | 0.28 | 81 | 1010.0 |
| 20260904230518 | 25 | 119 | 3.2 | 6.4 | 0.00 | 0.28 | 0.28 | 80 | 1009.8 |
| 20260904225533 | 25 | 244 | 0.0 | 3.2 | 0.00 | 0.28 | 0.28 | 80 | 1009.9 |